Regional Weather Roundup
Issued by NWS

Home | Current Version | Previous Version | Text Only | Print | Product List | Glossary On
Versions: 1 2 3 4 5 6 7 8 9 10 11 12 13 14 15 16 17 18 19 20 21 22 23 24 25 26 27 28 29 30 31 32 33 34 35 36 37 38 39 40 41 42 43 44 45 46 47 48 49 50
000
ASCA44 KEWX 240720
RWRMX

LATIN AMERICA AND CARIBBEAN REGIONAL WEATHER ROUNDUP
NATIONAL WEATHER SERVICE AUSTIN/SAN ANTONIO TX
200 AM CDT WED AUG 24 2016

NOTE: "FAIR" INDICATED FEW OR NO CLOUDS BELOW 12,000 FEET WITH NO
SIGNIFICANT WEATHER AND/OR OBSTRUCTIONS TO VISIBILITY.

BAJA CALIFORNIA

CITY           SKY/WX    TMP DP  RH WIND       PRES   REMARKS
MEXICALI       CLEAR     90  48  24 NW2       29.88S
S.J. DEL CABO    N/A    N/A N/A N/A MISG        N/A
TIJUANA        CLOUDY    66  61  82 W5        30.08S FOG

NORTHWESTERN MEXICO

CITY           SKY/WX    TMP DP  RH WIND       PRES   REMARKS
HERMOSILLO     CLEAR     82  77  83 CALM      30.01S HX  91

NORTHEASTERN MEXICO

CITY           SKY/WX    TMP DP  RH WIND       PRES   REMARKS
MONCLOVA         N/A    N/A N/A N/A MISG        N/A
MONTERREY      CLEAR     77  66  69 E6        30.11R
REYNOSA          N/A    N/A N/A N/A MISG        N/A
CD. VICTORIA     N/A    N/A N/A N/A MISG        N/A

WESTERN MEXICO

CITY           SKY/WX    TMP DP  RH WIND       PRES   REMARKS
AGUASCALIENTES   N/A    N/A N/A N/A MISG        N/A
COLIMA           N/A    N/A N/A N/A MISG        N/A
GUADALAJARA    CLOUDY    61  57  88 CALM      30.30S
MAZATLAN       PTCLDY    79  77  94 CALM      29.99S
P. VALLARTA    CLOUDY    77  75  94 NE7       29.99F
URUAPAN          N/A    N/A N/A N/A MISG        N/A
ZACATECAS        N/A    N/A N/A N/A MISG        N/A

CENTRAL MEXICO

CITY           SKY/WX    TMP DP  RH WIND       PRES   REMARKS
CUERNAVACA       N/A    N/A N/A N/A MISG        N/A
MEXICO CITY    MOCLDY    59  55  88 E3        30.44F
MORELIA        LGT RAIN  57  57 100 SW6       30.35F
POZA RICA        N/A    N/A N/A N/A MISG        N/A
QUERETARO      MOCLDY    61  55  82 CALM      30.44R
S. LUIS POTOSI MOCLDY    61  52  72 SE8       30.41S
TOLUCA         CLOUDY    54  50  87 CALM      30.51F

SOUTHERN MEXICO

CITY           SKY/WX    TMP DP  RH WIND       PRES   REMARKS
ACAPULCO       MOCLDY    79  72  78 N9        29.97F
B. DE HUATULCO   N/A    N/A N/A N/A MISG        N/A
P. ESCONDIDO     N/A    N/A N/A N/A MISG        N/A
VERACRUZ         N/A    N/A N/A N/A MISG        N/A

YUCATAN PENINSULA

CITY           SKY/WX    TMP DP  RH WIND       PRES   REMARKS
CAMPECHE         N/A    N/A N/A N/A MISG        N/A
CANCUN         LGT RAIN  79  79 100 N5        30.06F
CHETUMAL         N/A    N/A N/A N/A MISG        N/A
CD. DEL CARMEN   N/A    N/A N/A N/A MISG        N/A
COZUMEL        PTCLDY    77  77 100 NE3       30.04F
MERIDA         CLEAR     81  77  89 E8        30.06F
MINATITLAN       N/A    N/A N/A N/A MISG        N/A
TAPACHULA      PTCLDY    81  77  89 CALM      29.87F

CENTRAL AMERICA

CITY           SKY/WX    TMP DP  RH WIND       PRES   REMARKS

CARIBBEAN

CITY           SKY/WX    TMP DP  RH WIND       PRES   REMARKS
ARUBA          PTCLDY    82  75  78 E9        29.86S
KINGSTON       PTCLDY    84  75  74 N6        29.92S HX  92
NASSAU         PTCLDY    82  72  69 CALM      30.04F THUNDER
SAN JUAN       PTCLDY    79  77  94 SW5       29.86F
SANTO DOMINGO  PTCLDY    73  73 100 CALM      29.94
ST. CROIX      CLEAR     79  77  94 CALM      29.85
ST. MAARTEN    PTCLDY    82  79  89 E9        29.83  HX  93
ST. THOMAS     MOCLDY    81  81 100 CALM      29.85  HX  91

$$




USA.gov is the U.S. government's official web portal to all federal, state and local government web resources and services.